Regional Weather Roundup
Issued by NWS

Home | Current Version | Previous Version | Graphics & Text | Print | Product List | Glossary On
Versions: 1 2 3 4 5 6 7 8 9 10 11 12 13 14 15 16 17 18 19 20 21 22 23 24 25 26 27 28 29 30 31 32 33 34 35 36 37 38 39 40 41 42 43 44 45 46 47 48 49 50
000
ASUS43 KMPX 031610
RWRMN
WEATHER ROUNDUP FOR MINNESOTA
NATIONAL WEATHER SERVICE TWIN CITIES/CHANHASSEN MN
1000 AM CST TUE MAR 03 2015


NOTE: "FAIR" INDICATES FEW OR NO CLOUDS BELOW 12,000 FEET WITH NO
SIGNIFICANT WEATHER AND/OR OBSTRUCTIONS TO VISIBILITY. N/A MEANS
CURRENT SKY AND/OR WEATHER CONDITIONS ARE NOT AVAILABLE.

MNZ060>063-068>070-031700-
   Twin Cities Metro

CITY           SKY/WX    TMP DP  RH WIND       PRES   REMARKS
TWIN CITIES    LGT SNOW  23  21  92 SW3       29.68S VSB 1
ST PAUL        LGT SNOW  24  21  88 SE5       29.69F VSB 3/4 WCI  18
CRYSTAL        LGT SNOW  25  21  85 VRB3      29.67F VSB 3/4
BLAINE         LGT SNOW  25  25 100 S5        29.66F VSB 1   WCI  19
LAKEVILLE      CLOUDY    21  21 100 SE1       29.66F
EDEN PRAIRIE   LGT SNOW  25  22  88 SW6       29.66F VSB 1   WCI  18
SOUTH ST PAUL  LGT SNOW  24  21  88 CALM      29.67F
LAKE ELMO      LGT SNOW  25  21  86 S6        29.67F WCI  18
$$
MNZ001>005-007-008-013>017-022>024-027-028-031700-
   Northwest Minnesota

CITY           SKY/WX    TMP DP  RH WIND       PRES   REMARKS
BEMIDJI          N/A     14   8  79 NW25G33   29.70R HAZE    WCI  -6
HALLOCK        PTSUNNY    9   0  66 N24G31    29.84R WCI -12
ROSEAU         PTSUNNY   12   3  67 NW22G28   29.74R WCI  -7
WARROAD        CLOUDY    12   3  67 NW18G25   29.72R WCI  -5
THIEF RVR FALL CLOUDY    10   5  79 NW22      29.79R WCI  -9
CROOKSTON      PTSUNNY   12   7  79 NW20G26   29.86R HAZE    WCI  -6
FOSSTON        CLOUDY    12   5  73 NW20      29.77S HAZE    WCI  -6
DETROIT LAKES  CLOUDY    16  10  79 NW23G38   29.78R HAZE    WCI  -2
MOORHEAD       MIX PCPN  14   9  79 NW23G33   29.86R WCI  -5
PARK RAPIDS    LGT SNOW  18   9  68 NW20G32   29.68R WCI   2
MAHNOMEN       CLOUDY    13   7  76 NW26      29.78R HAZE    WCI  -7
$$
MNZ006-009>011-018-025>026-031700-
   North Central Minnesota

CITY           SKY/WX    TMP DP  RH WIND       PRES   REMARKS
BAUDETTE       MIX PCPN  13   6  74 NW21      29.67R WCI  -5
FLAG ISLAND    PTSUNNY    9   1  72 NW29      29.69R HAZE    WCI -14
INTL FALLS     LGT SNOW  20  14  77 W20G29    29.58R WCI   4
WASKISH        FLURRIES  16  10  79 W16G25    29.68R WCI   0
BIG FORK       LGT SNOW  23  18  80 W6        29.60R WCI  16
LONGVILLE      LGT SNOW  19  18  93 NW14G23   29.64R WCI   6
GRAND RAPIDS   CLOUDY    21  18  86 W9        29.58F VSB 3/4 WCI  11
CRANE LAKE     LGT SNOW  21  18  86 SW6       29.57F WCI  14
ORR            MIX PCPN  21  18  86 W7        29.54S WCI  13
COOK           LGT SNOW  21  18  86 SW8       29.56F VSB 1   WCI  12
WALKER         CLOUDY    17   8  68 NW16G26   29.67R HAZE    WCI   1
$$
MNZ012-019>021-037-031700-
   Northeast Minnesota

CITY           SKY/WX    TMP DP  RH WIND       PRES   REMARKS
DULUTH         SNOW      20  15  81 SW12      29.59F VSB 1/2 WCI   8
ELY            LGT SNOW  19  18  93 SW9       29.55F WCI   9
HIBBING        LGT SNOW  21  17  84 SW7       29.57F VSB 3/4 WCI  12
EVELETH        LGT SNOW  21  18  86 SW9       29.58F VSB 1   WCI  11
DULUTH HARBOR  LGT SNOW  21  19  93 SW8       29.65F WCI  12
TWO HARBORS    LGT SNOW  23  18  80 SW9       29.59F VSB 3/4 WCI  13
SILVER BAY     SNOW      23  19  86 SW9       29.58F VSB 1/2 WCI  13
GRAND MARAIS     N/A     26  23  88 SW25      29.62F WCI  11
G MARAIS ARPRT LGT SNOW  19  16  86 S13G18    29.54F VSB 3/4 WCI   7
$$
MNZ029>031-032-039>041-046>048-054>057-064-031700-
   West Central Minnesota

CITY           SKY/WX    TMP DP  RH WIND       PRES   REMARKS
FERGUS FALLS   LGT SNOW  16   9  73 NW28G39   29.83R VSB 3/4 WCI  -4
WHEATON        LGT SNOW  16   9  73 NW26G37   29.85R WCI  -3
MORRIS         LGT SNOW  18  14  86 NW28G38   29.76R VSB 1   WCI  -1
ALEXANDRIA     LGT SNOW  19  14  81 NW17G29   29.71R WCI   4
ELBOW LAKE     LGT SNOW  15  12  85 NW32G38   29.77R VSB 1   WCI  -5
WADENA         LGT SNOW  18  10  73 NW22G28   29.69R WCI   0
GLENWOOD       LGT SNOW  19  16  86 NW22G30   29.71R WCI   3
APPLETON       CLOUDY    19  16  86 NW25G32   29.79R FOG     WCI   2
BENSON         LGT SNOW  19  16  86 N25G35    29.75R WCI   2
ORTONVILLE     LGT SNOW  18  12  79 NW23G36   29.81R WCI   0
MADISON        LGT SNOW  19  16  86 NW24G31   29.81R WCI   2
WILLMAR        LGT SNOW  21  18  86 NW25      29.71R WCI   4
$$
MNZ033>034-036-042>043-049>051-058-059-031700-
   Central Minnesota

CITY           SKY/WX    TMP DP  RH WIND       PRES   REMARKS
ST CLOUD       LGT SNOW  21  18  88 SW7       29.66F VSB 1   WCI  12
SAUK CENTRE    LGT SNOW  23  20  89 NW20G26   29.67S WCI   8
PAYNESVILLE    LGT SNOW  21  19  93 SW12      29.67S WCI   9
AITKIN         LGT SNOW  25  18  74 SW6       29.61F VSB 1   WCI  18
PINE RIVER     LGT SNOW  21  18  86 NW13G22   29.68R WCI   9
BRAINERD       LGT SNOW  21  18  88 SW10      29.63F VSB 3/4 WCI  10
STAPLES        LGT SNOW  19  16  86 NW18G24   29.67R WCI   4
LITTLE FALLS   LGT SNOW  23  19  86 SW5       29.66F WCI  17
LITCHFIELD     LGT SNOW  25  25 100 W7        29.67S WCI  17
BUFFALO        LGT SNOW  24  21  89 SW6       29.68S VSB 3/4 WCI  17
MAPLE LAKE     LGT SNOW  25  22  91 SW6       29.67F VSB 3/4 WCI  18
$$
MNZ037-044-045-052-053-031700-
   East Central Minnesota

CITY           SKY/WX    TMP DP  RH WIND       PRES   REMARKS
PRINCETON      LGT SNOW  23  19  86 CALM      29.66S VSB 3/4
MORA           LGT SNOW  21  18  86 SW3       29.67F VSB 1
CAMBRIDGE      CLOUDY    23  16  74 S5        29.65F VSB 1/4 WCI  17
RUSH CITY      LGT SNOW  21  19  90 CALM      29.67F
MOOSE LAKE     LGT SNOW  21  18  86 CALM      29.62F VSB 1
HINCKLEY       SNOW      21  19  93 SW5       29.65F VSB 1/2 WCI  15
CLOQUET        LGT SNOW  19  16  86 SW8       29.60F VSB 3/4 WCI   9
MCGREGOR       CLOUDY    21  19  93 S8        29.63F VSB 1   WCI  12
$$
MNZ071>073-080-081-089-090-097-098-031700-
   Southwest Minnesota

CITY           SKY/WX    TMP DP  RH WIND       PRES   REMARKS
MONTEVIDEO     LGT SNOW  19  19 100 N21G29    29.77R WCI   3
GRANITE FALLS  LGT SNOW  21  17  85 NW30G38   29.76R VSB 1   WCI   3
CANBY          LGT SNOW  21  16  83 NW22G35   29.81R WCI   4
MARSHALL       CLOUDY    19  12  73 N26G41    29.77R VSB 3/4 WCI   1
REDWOOD FALLS  CLOUDY    27  22  81 NW18G29   29.70S HAZE    WCI  14
OLIVIA         CLOUDY    27  23  86 W21       29.69R FOG     WCI  13
PIPESTONE      SNOW      21  19  93 N20G36    29.73R VSB 1/4 WCI   6
WINDOM         LGT SNOW  27  25  93 W12       29.69S VSB 3/4 WCI  16
WORTHINGTON    CLOUDY    27  21  80 W16       29.72S WCI  14
JACKSON        LGT SNOW  28  23  80 W14       29.69S WCI  17
TRACY          CLOUDY    24  20  85 NW24G30   29.74R FOG     WCI   9
SLAYTON        CLOUDY    26  22  85 NW21      29.71R FOG     WCI  11
$$
MNZ065>067-074>077-082>085-091>093-031700-
   South Central Minnesota

CITY           SKY/WX    TMP DP  RH WIND       PRES   REMARKS
MANKATO        CLOUDY    27  21  80 W12       29.69R WCI  16
NEW ULM        LGT SNOW  25  21  86 W9        29.70R WCI  15
ST JAMES       LGT SNOW  27  25  93 SW8       29.72R WCI  18
FAIRMONT       MOSUNNY   27  21  80 W14       29.69R WCI  15
GLENCOE        LGT SNOW  26  24  91 SW5       29.67S VSB 1   WCI  20
FARIBAULT      LGT SNOW  27  21  80 S6        29.67F WCI  20
OWATONNA       RAIN      27  23  86 W5        29.66F WCI  21
WASECA         LGT SNOW  25  23  93 SW6       29.68F WCI  18
ALBERT LEA     LGT SNOW  27  25  93 SW7       29.66S WCI  19
$$
MNZ078>079-086>088-094>096-031700-
   Southeast Minnesota

CITY           SKY/WX    TMP DP  RH WIND       PRES   REMARKS
ROCHESTER      LGT SNOW  24  22  91 S7        29.64F FOG     WCI  16
RED WING       LGT SNOW  25  21  86 CALM      29.67F
STANTON        LGT SNOW  27  23  86 S3        29.65F
DODGE CENTER   LGT SNOW  25  25 100 SW6       29.63F WCI  18
WINONA         LGT SNOW  28  27  93 CALM      29.69F
AUSTIN         LGT SNOW  25  23  93 SW6       29.65F WCI  18
PRESTON        CLOUDY    24  22  96 S5        29.65F FOG     WCI  18
$$
ABBREVIATIONS USED IN REMARKS
   TC - TEMPERATURES IN CELSIUS
  WCI - WIND CHILL INDEX
   HX - HEAT INDEX
  VSB - VISIBILITY
$$


USA.gov is the U.S. government's official web portal to all federal, state and local government web resources and services.